This is the latest recevied weather packets stored in our database for station/object W0JRT-6. If no packets are shown the sender has not sent any weather packets the latest 10 day(s).
| Time | Temp. | Humidity | Pressure | Rain* | Wind** | Luminosity | Snow |
|---|---|---|---|---|---|---|---|
| 1777587889 | 17.78° C | 49% | 1010.6 hPa | 0 mm | - | - | - |
| 1777587600 | 17.78° C | 49% | 1010.6 hPa | 0 mm | - | - | - |
| 1777587002 | 18.33° C | 43% | 1010.5 hPa | 0 mm | - | - | - |
| 1777585207 | 18.33° C | 45% | 1010.4 hPa | 0 mm | - | - | - |
| 1777584598 | 18.89° C | 43% | 1010.3 hPa | 0 mm | - | - | - |
| 1777584010 | 19.44° C | 43% | 1010.6 hPa | 0 mm | - | - | - |
| 1777583403 | 18.89° C | 43% | 1010.7 hPa | 0 mm | - | - | - |
| 1777582200 | 18.33° C | 47% | 1011 hPa | 0 mm | - | - | - |
| 1777581608 | 18.89° C | 47% | 1011.1 hPa | 0 mm | - | - | - |
| 1777580412 | 18.89° C | 48% | 1011.4 hPa | 0 mm | - | - | - |
| 1777578612 | 18.33° C | 53% | 1011.4 hPa | 0 mm | - | - | - |
| 1777576205 | 17.78° C | 51% | 1011.8 hPa | 0 mm | - | - | - |
| 1777575003 | 18.33° C | 48% | 1011.8 hPa | 0 mm | - | - | - |
| 1777574400 | 18.89° C | 50% | 1012.1 hPa | 0 mm | - | - | - |
| 1777573802 | 17.22° C | 51% | 1012.2 hPa | 0 mm | - | - | - |
| 1777573211 | 17.22° C | 50% | 1012.4 hPa | 0 mm | - | - | - |
| 1777571999 | 18.33° C | 50% | 1012.3 hPa | 0 mm | - | - | - |
| 1777571411 | 18.33° C | 50% | 1012.6 hPa | 0 mm | - | - | - |
| 1777570812 | 17.78° C | 51% | 1012.6 hPa | 0 mm | - | - | - |
| 1777570199 | 17.78° C | 50% | 1012.6 hPa | 0 mm | - | - | - |
| 1777569611 | 17.78° C | 48% | 1012.8 hPa | 0 mm | - | - | - |
| 1777569006 | 17.78° C | 52% | 1012.9 hPa | 0 mm | - | - | - |
| 1777568401 | 17.78° C | 48% | 1013 hPa | 0 mm | - | - | - |
| 1777567808 | 17.78° C | 49% | 1013.2 hPa | 0 mm | - | - | - |
| 1777567204 | 17.78° C | 48% | 1013.2 hPa | 0 mm | - | - | - |
* Rain since midnight (hover to see other rain measurements)
** Current wind speed in m/s (hover to see current wind gust speed)